Location: Choisy
(48.7685°N, 2.4187°E)
Time: 02:41:56
(UTC+00:00)

Okean 1-7 Rocket - Pass Details

Date: 24 October 2021
Orbit: 617 x 648 km, 82.5° (Epoch: 05 December)

Event Time Altitude Azimuth Distance (km) Brightness Sun altitude
Rises 17:51:01 0° 350° (N) 2,910 7.1 -11.7°
Reaches altitude 10° 17:53:15 10° 350° (N) 2,002 6.2 -12.1°
Maximum altitude 17:57:42 88° 261° (W) 633 3.6 -12.8°
Drops below altitude 10° 18:02:09 10° 173° (S) 2,003 6.1 -13.5°
Sets 18:04:22 0° 173° (S) 2,910 7.0 -13.9°
